Temperature
-2 -2 -2 -2 -2 -2 -2 -1 -1 -0 -1 -1 -1 -2 -2 -2 -2 -2 -2 -2 -1 -1 -0 0 1 1 1 2 2 3 3 3 4 4 5 5 5 5 5 5 5 5 5 5
-3 -2 -2 -2 -2 -2 -2 -2 -2 -1 -2 -2 -2 -3 -2 -3 -3 -3 -3 -2 -2 -2 -1 -1 0 1 1 1 2 2 2 3 3 4 4 4 4 4 5 5 5 5 5 5
-1 -3 -2 -2 -3 -3 -3 -3 -3 -2 -2 -2 -3 -3 -3 -3 -4 -3 -3 -3 -3 -2 -2 -1 -1 -0 0 1 1 1 2 2 3 3 3 3 3 4 4 4 4 4 4 4
-2 -3 -3 -2 -3 -3 -4 -4 -4 -3 -3 -3 -3 -4 -4 -4 -4 -4 -4 -3 -3 -2 -2 -1 -1 -1 -0 0 0 1 1 1 2 2 2 2 3 3 3 3 3 4 4 4
-3 -3 -2 -2 -4 -4 -4 -4 -4 -4 -4 -4 -5 -4 -3 -4 -5 -4 -4 -4 -3 -2 -2 -2 -1 -1 -1 -0 -0 0 0 1 1 1 2 2 2 2 2 2 3 3 3 3
-4 -3 -2 -2 -4 -5 -4 -3 -4 -5 -5 -5 -5 -3 -2 -4 -5 -5 -4 -4 -3 -3 -2 -2 -2 -1 -1 -1 -1 -1 -0 -0 0 1 1 1 1 1 2 2 2 2 2 2
-4 -3 -2 -4 -6 -5 -4 -3 -5 -6 -6 -6 -5 -5 -5 -5 -5 -5 -4 -4 -3 -3 -3 -2 -2 -2 -2 -1 -1 -1 -1 -1 -0 0 0 0 0 1 1 1 1 1 1 2
-5 -4 -3 -6 -6 -5 -4 -6 -6 -6 -7 -7 -7 -6 -6 -6 -6 -5 -4 -4 -4 -3 -3 -3 -2 -2 -2 -2 -2 -2 -1 -1 -1 -1 -0 -0 -0 0 0 0 1 1 1 1
-5 -4 -6 -7 -6 -6 -7 -7 -7 -7 -7 -7 -7 -7 -7 -6 -6 -6 -5 -5 -4 -4 -3 -3 -3 -3 -2 -2 -2 -2 -2 -1 -1 -1 -1 -1 -1 -0 -0 -0 -0 -0 -0 -0
-7 -6 -7 -7 -7 -7 -7 -7 -7 -7 -7 -7 -7 -7 -7 -7 -6 -6 -6 -5 -5 -4 -4 -3 -3 -3 -3 -3 -3 -2 -2 -2 -2 -2 -2 -1 -1 -1 -1 -1 -1 -1 -1 -1
-8 -7 -8 -7 -7 -7 -7 -8 -8 -8 -8 -8 -8 -7 -7 -7 -7 -7 -6 -6 -5 -5 -5 -4 -4 -4 -3 -3 -3 -3 -3 -3 -2 -2 -2 -2 -2 -2 -2 -2 -2 -2 -2 -1
-6 -7 -7 -7 -7 -7 -8 -8 -8 -8 -8 -8 -8 -8 -8 -7 -7 -7 -7 -6 -6 -6 -5 -5 -4 -4 -4 -4 -4 -3 -3 -3 -3 -3 -3 -3 -3 -3 -3 -2 -2 -2 -2 -2
-8 -7 -8 -8 -7 -8 -8 -8 -8 -8 -8 -8 -8 -8 -8 -8 -7 -7 -7 -7 -6 -6 -6 -5 -5 -5 -4 -4 -4 -4 -4 -4 -4 -4 -4 -4 -4 -3 -3 -3 -3 -3 -3 -3
-8 -8 -8 -8 -8 -8 -8 -8 -8 -8 -8 -8 -8 -8 -8 -8 -8 -7 -7 -7 -7 -6 -6 -6 -5 -5 -5 -5 -5 -5 -5 -5 -4 -4 -4 -4 -4 -4 -4 -4 -4 -4 -4 -4
-8 -8 -8 -8 -8 -8 -8 -9 -9 -8 -8 -8 -8 -8 -8 -8 -8 -8 -7 -7 -7 -7 -6 -6 -6 -6 -6 -6 -5 -5 -5 -5 -5 -5 -5 -5 -5 -5 -5 -5 -5 -4 -4 -4
-8 -8 -9 -9 -9 -9 -9 -9 -9 -9 -9 -9 -8 -8 -8 -8 -8 -8 -8 -8 -7 -7 -7 -7 -6 -6 -6 -6 -6 -6 -6 -6 -6 -6 -6 -5 -5 -5 -5 -5 -5 -5 -5 -5
-9 -9 -9 -9 -9 -9 -9 -9 -9 -9 -9 -9 -9 -8 -8 -8 -8 -8 -8 -8 -8 -8 -7 -7 -7 -7 -7 -7 -7 -6 -6 -6 -6 -6 -6 -6 -6 -6 -6 -6 -6 -6 -6 -6
-8 -8 -8 -9 -9 -9 -9 -9 -9 -9 -9 -9 -9 -9 -9 -9 -8 -8 -8 -8 -8 -8 -8 -8 -7 -7 -7 -7 -7 -7 -7 -7 -7 -7 -7 -7 -7 -7 -7 -7 -7 -7 -7 -7
-8 -8 -8 -9 -9 -9 -9 -9 -9 -9 -9 -9 -9 -9 -9 -9 -9 -9 -9 -9 -8 -8 -8 -8 -8 -8 -8 -8 -8 -8 -8 -8 -7 -7 -7 -7 -7 -7 -7 -7 -7 -7 -7 -7
-8 -8 -8 -9 -9 -9 -9 -9 -9 -9 -9 -9 -9 -9 -9 -9 -9 -9 -9 -9 -9 -9 -9 -8 -8 -8 -8 -8 -8 -8 -8 -8 -8 -8 -8 -8 -8 -8 -8 -8 -8 -8 -8 -8
-8 -8 -9 -9 -9 -9 -9 -9 -9 -9 -9 -9 -9 -9 -9 -9 -9 -9 -9 -9 -9 -9 -9 -9 -9 -9 -9 -9 -9 -9 -9 -9 -9 -9 -9 -9 -9 -9 -8 -8 -8 -8 -8 -8
-8 -8 -9 -9 -9 -9 -9 -9 -9 -9 -9 -9 -9 -9 -9 -9 -9 -9 -10 -10 -9 -9 -9 -9 -9 -9 -9 -9 -9 -9 -9 -9 -9 -9 -9 -9 -9 -9 -9 -9 -9 -9 -8 -8
-8 -9 -9 -9 -9 -9 -9 -9 -9 -9 -10 -10 -10 -10 -10 -10 -10 -10 -10 -10 -10 -10 -10 -10 -10 -10 -9 -9 -9 -9 -9 -9 -9 -9 -9 -9 -9 -9 -9 -9 -9 -9 -9 -9
-9 -9 -9 -9 -9 -9 -9 -9 -10 -10 -10 -10 -10 -10 -10 -10 -10 -10 -10 -10 -10 -10 -10 -10 -10 -10 -10 -10 -10 -10 -10 -10 -10 -10 -10 -10 -10 -10 -9 -9 -9 -9 -9 -9
-9 -9 -9 -10 -10 -10 -10 -10 -10 -10 -10 -10 -10 -10 -11 -11 -11 -10 -10 -10 -10 -10 -10 -10 -10 -10 -10 -10 -10 -10 -10 -10 -10 -10 -10 -10 -10 -10 -10 -10 -10 -10 -10 -10
-9 -10 -10 -10 -10 -10 -10 -10 -10 -10 -10 -10 -10 -11 -11 -11 -11 -11 -11 -11 -11 -11 -11 -11 -10 -11 -11 -11 -10 -10 -10 -10 -10 -10 -10 -10 -10 -10 -10 -10 -10 -10 -10 -10
-10 -10 -10 -10 -10 -10 -10 -11 -11 -11 -11 -11 -11 -11 -11 -11 -11 -11 -11 -11 -11 -11 -11 -11 -11 -11 -11 -11 -11 -11 -11 -11 -11 -11 -10 -10 -10 -10 -10 -10 -10 -10 -10 -10
Wind_Speed
5 6 4 4 6 4 3 5 5 6 6 7 9 10 9 8 7 7 7 6 6 6 5 4 4 3 3 3 3 2 1 1 1 1 2 2 2 3 3 3 4 4 5 5
3 4 4 5 6 4 4 4 6 7 6 8 9 8 8 7 7 7 7 6 7 7 6 5 5 4 4 4 3 2 2 2 2 1 1 1 1 2 3 3 3 3 4 5
3 4 4 4 4 3 2 3 3 5 6 8 9 9 8 7 7 7 7 6 7 7 6 6 5 4 4 4 3 2 2 2 2 1 1 1 1 1 2 2 2 3 4 4
2 2 3 0 2 2 4 4 3 4 7 8 9 10 7 5 6 7 7 7 7 7 7 6 6 5 4 3 3 2 2 2 2 1 1 1 1 1 1 1 2 2 3 4
1 3 5 2 1 2 3 4 3 5 8 9 9 7 4 5 7 8 8 7 7 7 7 6 6 5 3 3 3 3 3 3 2 2 1 1 1 2 1 1 2 2 2 3
2 3 4 1 3 3 3 3 3 5 7 8 7 5 5 8 10 10 9 7 7 7 7 6 6 4 3 3 3 3 3 3 3 2 1 2 1 1 1 1 1 1 1 2
4 4 4 2 3 1 3 3 4 5 6 7 5 7 9 11 10 9 9 8 8 7 6 6 6 4 3 3 4 4 4 3 2 2 1 1 1 1 1 1 1 1 1 1
4 5 4 2 1 2 3 4 4 5 6 7 8 9 10 10 10 9 9 9 8 7 6 6 6 4 3 4 4 4 3 2 2 2 1 1 0 0 0 1 2 1 1 1
5 4 1 3 3 3 3 4 5 6 7 7 9 9 9 9 9 9 8 8 7 7 6 6 6 5 4 5 4 3 2 2 2 2 1 1 0 1 1 1 2 2 2 1
5 6 5 5 5 5 5 6 7 7 7 7 8 9 9 9 9 8 8 7 7 6 6 6 6 6 5 5 3 2 2 2 2 1 1 1 1 0 1 1 2 2 2 2
6 6 5 5 6 7 7 7 7 7 7 7 8 8 8 8 8 8 7 7 6 5 6 6 6 6 5 4 3 2 2 2 1 1 1 1 1 1 0 1 2 2 2 2
5 4 4 4 4 5 6 7 7 7 7 7 7 8 8 8 7 7 7 6 5 6 6 6 6 6 5 4 3 2 1 1 1 1 0 0 1 2 4 2 2 1 1 2
6 4 5 6 5 4 5 7 7 6 7 8 7 7 7 7 7 6 6 6 6 6 6 6 5 5 5 4 3 2 1 1 1 1 0 0 0 0 1 2 2 1 0 1
7 4 5 5 6 5 6 6 6 6 6 6 7 6 6 6 6 6 6 6 6 5 5 5 5 5 5 4 3 2 2 2 1 1 1 1 1 1 1 1 0 1 1 1
7 7 7 6 5 5 5 5 5 6 6 6 6 6 6 6 6 6 6 5 5 4 5 5 5 5 5 4 2 2 2 1 1 1 1 0 0 0 0 0 1 1 1 1
6 6 6 6 6 6 5 5 6 7 6 6 6 6 6 6 6 6 5 4 4 4 5 5 5 5 4 3 2 2 1 2 1 1 0 0 0 0 0 0 1 1 1 1
4 5 6 6 7 7 6 6 6 7 6 6 6 6 5 5 5 5 5 4 3 4 4 4 5 5 4 3 2 1 1 1 2 1 0 0 0 0 0 0 1 1 1 2
8 7 6 6 6 7 7 6 6 6 6 6 6 5 4 4 4 5 5 4 4 4 5 5 4 4 3 3 2 1 1 1 1 1 1 1 1 1 1 0 1 1 1 1
6 7 7 7 7 6 6 6 6 6 5 5 4 4 4 4 4 4 4 3 3 4 5 5 5 3 3 3 2 1 1 1 1 1 1 1 1 1 1 1 1 1 1 1
5 6 6 6 5 5 5 5 5 4 4 4 3 3 4 4 3 3 3 3 3 3 4 4 4 3 3 3 2 1 1 0 0 0 1 1 1 1 1 1 2 2 2 2
5 5 5 5 5 5 5 4 4 4 4 3 3 4 4 4 3 2 2 3 4 4 3 4 3 3 2 2 2 1 1 1 0 0 0 1 1 1 1 2 2 2 2 2
4 4 5 5 4 4 4 3 3 4 3 3 3 3 3 4 3 3 3 3 4 4 3 2 2 3 3 3 2 1 1 1 1 1 1 1 1 1 1 1 2 2 2 2
3 4 4 4 4 4 3 3 3 3 3 3 3 3 3 3 3 3 3 3 3 4 3 2 3 4 4 2 1 1 1 1 1 1 1 1 1 1 1 2 2 2 2 2
3 3 3 3 2 2 3 3 3 3 3 3 3 3 3 3 3 3 3 4 5 5 3 3 4 4 4 2 1 1 1 1 1 1 1 1 1 1 1 2 2 2 2 3
3 3 2 2 2 3 3 3 2 2 2 2 3 3 2 2 3 3 2 3 4 4 3 3 4 4 3 2 2 2 2 2 2 2 1 1 2 2 2 2 2 2 2 3
2 3 3 3 3 3 2 2 2 2 2 2 2 2 2 2 2 2 2 3 3 4 3 3 3 3 2 2 2 2 2 2 2 2 2 2 2 2 2 2 3 3 3 3
2 2 2 2 2 2 2 2 2 3 2 2 3 2 2 2 2 2 2 2 2 3 3 3 3 2 2 2 2 2 2 2 2 2 2 2 2 2 2 3 3 3 3 4
Wind_Direction
274 285 280 291 304 301 264 256 260 276 285 309 324 327 332 340 347 353 0 3 3 359 356 355 352 349 342 341 346 343 341 341 309 274 223 222 216 207 203 202 204 201 199 200
278 278 283 291 308 292 271 267 263 281 287 311 319 322 328 338 343 348 350 351 351 351 350 348 343 337 338 340 339 340 336 327 331 326 312 239 230 204 198 195 193 192 197 198
276 316 293 271 286 270 263 282 259 262 286 311 318 317 319 325 332 334 336 339 341 340 338 335 329 323 321 325 331 334 336 331 333 327 302 271 242 208 198 198 191 189 186 190
288 307 245 314 35 290 260 275 265 286 304 310 305 301 304 320 329 328 328 331 330 329 329 329 329 323 323 330 337 335 335 337 331 326 314 291 249 230 224 202 193 192 192 192
254 268 272 280 329 312 263 277 308 302 306 314 319 305 301 340 333 321 318 318 318 319 319 323 327 325 328 336 341 340 334 331 324 319 302 287 261 233 220 202 194 190 189 184
225 254 254 340 356 326 242 259 343 317 307 314 326 307 312 334 326 318 318 319 321 322 321 325 328 330 331 331 332 325 319 315 313 308 284 269 266 258 226 198 188 170 174 182
233 246 262 341 332 250 223 295 330 305 299 303 294 286 304 314 316 317 317 321 324 323 324 324 327 331 320 319 315 313 311 311 320 317 295 278 275 267 222 180 167 163 161 185
213 230 248 69 134 213 278 327 307 301 299 296 292 296 303 310 314 319 322 324 325 322 320 325 332 327 312 307 310 315 316 319 326 328 327 317 228 197 193 183 175 181 173 194
223 237 352 181 215 258 296 291 296 297 299 297 295 298 304 308 312 315 317 318 320 317 319 328 332 328 312 308 313 319 325 326 332 349 2 22 153 162 174 199 194 198 197 198
254 257 267 255 256 278 282 283 291 294 296 296 293 300 305 306 309 312 313 313 316 320 323 324 329 328 319 314 314 321 328 331 339 2 20 32 23 202 192 202 205 203 202 200
252 272 292 261 259 271 280 284 290 295 294 291 293 297 301 303 306 309 311 313 315 313 313 316 323 328 327 325 326 324 328 331 346 9 26 36 30 11 294 274 244 222 219 212
242 246 244 271 276 276 278 282 284 290 295 294 291 292 298 300 302 304 307 311 315 314 313 316 321 326 329 331 332 327 330 336 339 346 14 37 55 33 31 22 19 344 288 258
250 268 265 278 284 276 282 287 290 288 288 293 294 292 293 296 300 303 306 309 310 309 310 314 319 326 330 333 335 329 315 313 320 305 269 240 215 165 29 35 49 54 128 252
248 260 269 272 279 283 282 288 294 293 291 291 293 295 295 296 300 304 305 306 307 310 312 315 320 325 329 332 337 335 327 321 315 299 278 252 232 226 219 215 286 342 14 99
245 245 257 277 284 284 285 291 293 294 299 301 301 300 300 300 302 303 305 307 310 315 318 322 325 327 330 334 336 337 331 317 320 321 309 289 259 219 205 219 232 276 341 15
260 253 255 264 272 281 285 283 284 289 295 297 299 299 298 296 297 303 310 316 317 318 320 323 323 324 330 336 340 341 340 338 323 317 321 302 243 202 205 208 228 256 289 307
246 253 253 260 267 273 273 271 273 280 287 288 291 295 299 302 305 311 317 322 318 314 316 318 317 322 331 335 336 336 337 343 351 350 4 312 286 264 247 238 258 276 295 307
240 246 247 251 257 264 271 274 274 277 279 283 290 294 295 295 296 303 311 320 329 332 328 322 321 328 334 338 335 329 330 331 339 356 11 15 7 345 320 277 273 283 301 318
247 252 254 254 257 258 264 269 272 274 277 280 283 287 289 288 291 299 311 321 325 323 327 333 340 339 338 340 338 325 330 344 357 4 8 25 14 3 349 331 311 305 305 310
254 256 258 260 259 257 261 269 273 274 275 275 278 287 295 299 302 304 311 310 305 307 315 326 332 334 335 339 345 338 340 343 346 350 353 350 353 346 339 334 331 326 317 311
260 261 260 262 264 264 264 266 267 271 277 271 268 275 284 296 303 302 301 306 316 321 319 325 332 335 335 339 341 332 330 324 314 303 316 326 332 334 333 332 332 332 329 325
261 262 263 264 266 272 273 267 263 268 275 275 276 280 287 294 299 294 285 286 305 322 325 327 331 334 336 336 337 339 337 335 325 308 292 287 291 303 309 315 321 325 324 325
257 258 260 260 260 268 278 273 265 262 266 269 272 273 275 282 289 290 298 307 310 319 321 321 326 329 332 334 335 333 327 317 309 299 291 288 286 285 288 296 302 305 308 313
255 254 258 264 263 262 274 282 275 268 270 271 270 270 272 279 285 278 283 306 317 317 314 318 323 327 330 331 324 316 308 300 294 290 287 287 288 287 286 287 290 294 297 303
255 256 253 249 249 259 268 280 284 280 279 279 284 282 272 265 270 290 300 304 310 312 309 318 324 326 323 313 308 301 295 287 283 279 274 271 273 276 279 281 284 288 290 290
253 255 256 250 252 264 266 262 267 273 274 281 290 288 286 283 283 292 299 306 309 310 309 311 315 316 306 300 295 293 289 290 290 286 277 270 267 269 274 279 283 280 282 284
252 258 264 270 273 268 262 255 256 261 260 264 278 286 288 293 295 299 302 306 309 308 305 306 308 305 299 293 290 289 287 285 283 281 279 273 270 267 268 270 273 275 277 278
Height
1510 1509 1508 1506 1504 1502 1500 1496 1492 1489 1489 1489 1489 1487 1485 1481 1479 1476 1474 1472 1471 1470 1470 1469 1469 1469 1468 1468 1468 1468 1469 1470 1471 1473 1474 1475 1477 1479 1481 1484 1486 1488 1490 1491
1511 1508 1506 1504 1502 1501 1500 1498 1496 1493 1492 1492 1491 1488 1485 1483 1480 1477 1475 1473 1472 1471 1470 1469 1468 1467 1467 1467 1467 1467 1467 1468 1469 1470 1471 1473 1474 1476 1478 1480 1482 1484 1485 1487
1504 1508 1505 1499 1502 1502 1501 1500 1498 1495 1495 1493 1491 1488 1485 1483 1480 1478 1475 1473 1472 1471 1470 1469 1468 1467 1466 1466 1466 1466 1466 1467 1467 1468 1469 1470 1472 1473 1475 1476 1478 1480 1481 1483
1507 1507 1505 1500 1504 1502 1501 1500 1500 1497 1495 1493 1491 1488 1485 1483 1481 1478 1476 1473 1472 1470 1469 1468 1467 1466 1465 1465 1465 1465 1465 1465 1466 1467 1468 1469 1470 1470 1471 1473 1474 1476 1477 1479
1508 1503 1497 1500 1503 1503 1502 1498 1498 1497 1495 1493 1490 1485 1482 1482 1480 1478 1476 1473 1471 1470 1468 1467 1465 1464 1463 1463 1463 1463 1463 1463 1464 1465 1465 1466 1467 1468 1469 1470 1471 1472 1474 1475
1509 1503 1497 1498 1503 1502 1502 1496 1497 1496 1494 1492 1490 1484 1482 1481 1479 1477 1474 1472 1470 1469 1467 1466 1464 1463 1462 1461 1461 1461 1462 1462 1462 1462 1463 1464 1464 1465 1466 1468 1468 1470 1471 1473
1508 1503 1496 1502 1503 1502 1500 1494 1497 1495 1494 1492 1490 1488 1485 1481 1478 1475 1473 1471 1469 1467 1466 1464 1463 1462 1461 1460 1460 1460 1460 1460 1460 1460 1461 1461 1462 1463 1464 1465 1466 1467 1468 1470
1507 1503 1499 1502 1501 1501 1497 1496 1495 1494 1492 1490 1488 1485 1482 1479 1476 1474 1471 1469 1467 1466 1464 1463 1462 1461 1459 1458 1458 1458 1458 1458 1458 1458 1458 1459 1459 1460 1461 1463 1463 1464 1465 1467
1504 1501 1500 1500 1499 1498 1497 1495 1494 1492 1490 1488 1485 1483 1480 1477 1475 1472 1470 1468 1466 1464 1462 1461 1460 1459 1458 1457 1457 1456 1456 1455 1455 1455 1456 1456 1457 1458 1459 1460 1461 1461 1463 1464
1505 1499 1499 1498 1497 1496 1495 1493 1492 1490 1488 1486 1483 1481 1478 1475 1473 1470 1468 1466 1464 1462 1461 1459 1458 1457 1456 1456 1455 1454 1453 1453 1453 1453 1454 1455 1455 1456 1457 1457 1458 1459 1460 1461
1501 1498 1497 1494 1494 1493 1492 1491 1489 1487 1486 1484 1481 1478 1476 1473 1470 1468 1466 1464 1463 1461 1459 1458 1457 1456 1455 1454 1453 1452 1452 1451 1451 1452 1452 1452 1453 1454 1455 1456 1456 1457 1458 1459
1495 1494 1494 1492 1491 1490 1489 1488 1487 1485 1483 1481 1479 1476 1473 1471 1468 1466 1464 1462 1461 1459 1458 1456 1455 1453 1452 1451 1451 1450 1450 1449 1449 1450 1450 1450 1451 1451 1452 1453 1454 1455 1456 1457
1492 1491 1491 1490 1489 1488 1487 1485 1484 1482 1480 1478 1476 1474 1471 1469 1466 1464 1462 1460 1459 1457 1456 1455 1453 1452 1451 1450 1449 1448 1448 1447 1447 1448 1448 1448 1449 1449 1449 1451 1452 1453 1453 1454
1489 1489 1488 1487 1486 1485 1484 1482 1481 1479 1477 1475 1473 1471 1469 1467 1464 1462 1460 1458 1457 1455 1454 1453 1451 1450 1449 1448 1447 1447 1446 1446 1446 1446 1446 1446 1447 1447 1447 1448 1448 1449 1451 1452
1485 1485 1485 1484 1483 1482 1481 1480 1478 1476 1474 1472 1470 1468 1466 1464 1462 1460 1458 1457 1455 1454 1452 1451 1450 1449 1448 1447 1446 1445 1445 1444 1444 1444 1444 1445 1445 1445 1445 1446 1446 1447 1447 1448
1482 1482 1481 1481 1479 1479 1478 1476 1475 1473 1471 1469 1467 1466 1464 1462 1460 1458 1457 1455 1453 1452 1451 1450 1448 1447 1446 1445 1444 1444 1443 1443 1443 1443 1443 1443 1443 1443 1443 1444 1444 1444 1445 1445
1478 1477 1477 1476 1476 1475 1474 1473 1472 1470 1469 1467 1465 1463 1462 1460 1458 1456 1455 1454 1452 1451 1450 1448 1447 1446 1445 1444 1443 1442 1442 1442 1442 1441 1441 1441 1441 1441 1441 1442 1442 1442 1443 1443
1474 1474 1474 1473 1472 1471 1471 1470 1469 1467 1466 1464 1463 1461 1459 1458 1456 1455 1454 1452 1451 1450 1449 1447 1446 1445 1444 1443 1442 1442 1441 1441 1440 1440 1440 1439 1439 1440 1440 1440 1440 1440 1440 1441
1471 1470 1470 1469 1469 1468 1467 1466 1466 1464 1463 1462 1460 1459 1457 1456 1454 1453 1452 1451 1449 1448 1447 1446 1445 1444 1443 1442 1442 1441 1440 1440 1439 1439 1438 1438 1438 1438 1438 1438 1438 1438 1438 1438
1468 1467 1467 1466 1465 1465 1464 1463 1462 1461 1460 1459 1458 1456 1455 1454 1453 1451 1450 1449 1448 1447 1446 1445 1444 1443 1442 1441 1441 1440 1439 1439 1438 1438 1438 1437 1437 1437 1437 1437 1437 1437 1437 1436
1465 1464 1463 1463 1462 1462 1461 1460 1459 1458 1457 1456 1455 1454 1453 1452 1451 1450 1449 1447 1447 1446 1445 1444 1443 1442 1441 1440 1440 1439 1438 1438 1438 1437 1437 1436 1436 1436 1436 1436 1435 1435 1435 1434
1461 1461 1460 1459 1459 1458 1458 1457 1456 1455 1455 1453 1452 1452 1451 1450 1449 1448 1447 1446 1445 1445 1443 1443 1442 1441 1440 1439 1439 1438 1437 1437 1436 1436 1436 1435 1435 1435 1434 1434 1434 1434 1433 1433
1458 1458 1457 1456 1456 1455 1454 1454 1453 1452 1452 1451 1450 1449 1448 1447 1447 1446 1445 1445 1444 1443 1442 1441 1440 1440 1439 1438 1437 1436 1436 1436 1435 1435 1435 1434 1434 1434 1433 1433 1432 1432 1432 1431
1456 1455 1454 1454 1453 1452 1451 1451 1450 1450 1449 1448 1448 1447 1446 1445 1444 1444 1443 1443 1442 1441 1440 1439 1439 1438 1437 1436 1435 1435 1434 1434 1434 1433 1433 1433 1432 1432 1432 1431 1431 1430 1430 1429
1453 1452 1451 1451 1450 1449 1448 1448 1447 1447 1447 1446 1445 1445 1444 1443 1442 1442 1441 1440 1440 1439 1438 1437 1436 1435 1434 1434 1433 1433 1432 1432 1432 1431 1431 1431 1430 1430 1430 1429 1429 1429 1428 1428
1450 1449 1449 1448 1447 1447 1446 1445 1445 1444 1444 1443 1443 1442 1442 1441 1440 1439 1439 1438 1437 1436 1435 1435 1434 1433 1432 1431 1431 1430 1430 1429 1429 1429 1429 1428 1428 1428 1428 1427 1427 1427 1426 1426
1447 1447 1446 1445 1445 1444 1444 1443 1442 1442 1441 1441 1440 1440 1439 1439 1438 1437 1437 1436 1435 1434 1433 1432 1431 1430 1430 1429 1428 1428 1427 1427 1427 1427 1426 1426 1426 1425 1425 1425 1425 1425 1424 1424